Time,TemperatureF,DewpointF,PressureIn,WindDirection,WindDirectionDegrees,WindSpeedMPH,WindSpeedGustMPH,Humidity,HourlyPrecipIn,Conditions,Clouds,dailyrainin,SoftwareType,DateUTC
2013-05-04 00:01:00,68.7,64.9,29.75,East,80,2.0,8.0,88,0.00,,,0.35,meteohub,2013-05-04 04:01:00,
2013-05-04 00:02:00,68.7,64.9,29.75,ENE,71,1.0,8.0,88,0.00,,,0.35,meteohub,2013-05-04 04:02:00,
2013-05-04 00:04:00,68.7,64.9,29.75,ENE,71,2.0,8.0,88,0.00,,,0.35,meteohub,2013-05-04 04:04:00,
2013-05-04 00:10:00,68.7,64.9,29.75,ENE,74,0.0,7.0,88,0.00,,,0.00,meteohub,2013-05-04 04:10:00,
2013-05-04 00:16:00,68.5,64.8,29.75,ENE,74,1.0,4.0,88,0.00,,,0.00,meteohub,2013-05-04 04:16:00,
2013-05-04 00:22:00,68.5,64.8,29.74,ENE,61,2.0,3.0,88,0.00,,,0.00,meteohub,2013-05-04 04:22:00,
2013-05-04 00:27:00,68.5,64.8,29.74,ENE,62,0.0,4.0,88,0.00,,,0.00,meteohub,2013-05-04 04:27:00,
2013-05-04 00:32:00,68.4,64.9,29.74,ENE,62,0.0,4.0,89,0.00,,,0.00,meteohub,2013-05-04 04:32:00,
2013-05-04 00:34:00,68.2,64.8,29.74,ENE,62,0.0,4.0,89,0.00,,,0.00,meteohub,2013-05-04 04:34:00,
2013-05-04 00:40:00,67.8,64.4,29.74,ENE,62,0.0,2.0,89,0.00,,,0.00,meteohub,2013-05-04 04:40:00,
2013-05-04 00:46:00,67.6,64.6,29.74,ENE,62,0.0,2.0,90,0.00,,,0.00,meteohub,2013-05-04 04:46:00,
2013-05-04 00:52:00,67.5,64.4,29.73,ENE,62,0.0,1.0,90,0.00,,,0.00,meteohub,2013-05-04 04:52:00,
2013-05-04 00:57:00,67.3,64.6,29.73,ENE,62,0.0,0.0,91,0.00,,,0.00,meteohub,2013-05-04 04:57:00,
2013-05-04 01:02:00,66.9,64.2,29.73,ENE,62,0.0,0.0,91,0.00,,,0.00,meteohub,2013-05-04 05:02:00,
2013-05-04 01:07:00,66.9,64.2,29.73,ENE,62,0.0,0.0,91,0.00,,,0.00,meteohub,2013-05-04 05:07:00,
2013-05-04 01:12:00,66.7,64.4,29.73,ENE,62,0.0,0.0,92,0.00,,,0.00,meteohub,2013-05-04 05:12:00,
2013-05-04 01:17:00,66.6,64.2,29.73,ENE,62,0.0,1.0,92,0.00,,,0.00,meteohub,2013-05-04 05:17:00,
2013-05-04 01:22:00,66.4,64.0,29.73,ENE,62,0.0,1.0,92,0.00,,,0.00,meteohub,2013-05-04 05:22:00,
2013-05-04 01:27:00,66.4,64.2,29.73,ENE,62,0.0,1.0,93,0.00,,,0.00,meteohub,2013-05-04 05:27:00,
2013-05-04 01:32:00,66.2,64.0,29.73,ENE,62,0.0,1.0,93,0.00,,,0.00,meteohub,2013-05-04 05:32:00,
2013-05-04 01:37:00,66.2,64.0,29.73,ENE,62,0.0,1.0,93,0.00,,,0.00,meteohub,2013-05-04 05:37:00,
2013-05-04 01:42:00,66.2,64.4,29.72,ENE,62,0.0,1.0,94,0.00,,,0.00,meteohub,2013-05-04 05:42:00,
2013-05-04 01:47:00,66.0,64.2,29.72,ENE,62,0.0,1.0,94,0.00,,,0.00,meteohub,2013-05-04 05:47:00,
2013-05-04 01:52:00,66.0,64.2,29.72,ENE,62,0.0,1.0,94,0.00,,,0.00,meteohub,2013-05-04 05:52:00,
2013-05-04 01:57:00,66.0,64.2,29.72,ENE,62,0.0,1.0,94,0.00,,,0.00,meteohub,2013-05-04 05:57:00,
2013-05-04 02:02:00,66.0,64.2,29.71,ENE,62,0.0,1.0,94,0.00,,,0.00,meteohub,2013-05-04 06:02:00,
2013-05-04 02:07:00,65.8,64.0,29.71,ENE,62,0.0,0.0,94,0.00,,,0.00,meteohub,2013-05-04 06:07:00,
2013-05-04 02:12:00,65.8,64.0,29.71,ENE,62,0.0,1.0,94,0.00,,,0.00,meteohub,2013-05-04 06:12:00,
2013-05-04 02:17:00,65.7,63.9,29.70,ENE,62,0.0,1.0,94,0.00,,,0.00,meteohub,2013-05-04 06:17:00,
2013-05-04 02:22:00,65.5,64.0,29.70,ENE,62,0.0,1.0,95,0.00,,,0.00,meteohub,2013-05-04 06:22:00,
2013-05-04 02:27:00,65.5,64.0,29.70,ENE,62,0.0,0.0,95,0.00,,,0.00,meteohub,2013-05-04 06:27:00,
2013-05-04 02:32:00,65.3,63.9,29.70,ENE,62,0.0,0.0,95,0.00,,,0.00,meteohub,2013-05-04 06:32:00,
2013-05-04 02:37:00,65.5,64.0,29.70,ENE,62,0.0,0.0,95,0.00,,,0.00,meteohub,2013-05-04 06:37:00,
2013-05-04 02:42:00,65.5,64.0,29.70,ENE,62,1.0,0.0,95,0.00,,,0.00,meteohub,2013-05-04 06:42:00,
2013-05-04 02:47:00,65.7,64.4,29.69,ENE,62,0.0,2.0,96,0.00,,,0.00,meteohub,2013-05-04 06:47:00,
2013-05-04 02:52:00,65.8,64.4,29.69,ENE,62,3.0,3.0,95,0.00,,,0.00,meteohub,2013-05-04 06:52:00,
2013-05-04 02:57:00,66.0,64.6,29.68,NE,46,2.0,3.0,95,0.00,,,0.00,meteohub,2013-05-04 06:57:00,
2013-05-04 03:02:00,66.4,64.9,29.68,NE,53,2.0,5.0,95,0.00,,,0.00,meteohub,2013-05-04 07:02:00,
2013-05-04 03:07:00,66.6,64.8,29.68,NE,51,0.0,5.0,94,0.00,,,0.00,meteohub,2013-05-04 07:07:00,
2013-05-04 03:12:00,66.4,64.6,29.68,NE,51,2.0,4.0,94,0.00,,,0.00,meteohub,2013-05-04 07:12:00,
2013-05-04 03:17:00,66.4,64.6,29.68,NE,51,1.0,3.0,94,0.00,,,0.00,meteohub,2013-05-04 07:17:00,
2013-05-04 03:22:00,66.4,64.6,29.68,NE,51,1.0,2.0,94,0.00,,,0.00,meteohub,2013-05-04 07:22:00,
2013-05-04 03:27:00,66.2,64.4,29.68,NE,51,1.0,2.0,94,0.00,,,0.00,meteohub,2013-05-04 07:27:00,
2013-05-04 03:32:00,66.0,64.2,29.68,NE,51,0.0,2.0,94,0.00,,,0.00,meteohub,2013-05-04 07:32:00,
2013-05-04 03:37:00,66.0,64.2,29.68,NE,51,0.0,2.0,94,0.00,,,0.00,meteohub,2013-05-04 07:37:00,
2013-05-04 03:42:00,65.8,64.0,29.68,NE,51,1.0,2.0,94,0.00,,,0.00,meteohub,2013-05-04 07:42:00,
2013-05-04 03:47:00,65.8,64.4,29.68,NE,51,0.0,1.0,95,0.00,,,0.00,meteohub,2013-05-04 07:47:00,
2013-05-04 03:52:00,65.8,64.4,29.68,NE,51,0.0,1.0,95,0.00,,,0.00,meteohub,2013-05-04 07:52:00,
2013-05-04 03:57:00,65.7,64.2,29.68,NE,51,0.0,1.0,95,0.00,,,0.00,meteohub,2013-05-04 07:57:00,
2013-05-04 04:02:00,65.7,64.2,29.68,NE,51,0.0,1.0,95,0.00,,,0.00,meteohub,2013-05-04 08:02:00,
2013-05-04 04:07:00,65.5,64.0,29.67,NE,51,0.0,0.0,95,0.00,,,0.00,meteohub,2013-05-04 08:07:00,
2013-05-04 04:12:00,65.5,64.0,29.67,NE,51,0.0,0.0,95,0.00,,,0.00,meteohub,2013-05-04 08:12:00,
2013-05-04 04:17:00,65.3,63.9,29.67,NE,51,0.0,0.0,95,0.00,,,0.00,meteohub,2013-05-04 08:17:00,
2013-05-04 04:22:00,65.3,63.9,29.67,NE,51,0.0,0.0,95,0.00,,,0.00,meteohub,2013-05-04 08:22:00,
2013-05-04 04:27:00,65.1,63.7,29.67,NE,51,0.0,0.0,95,0.00,,,0.00,meteohub,2013-05-04 08:27:00,
2013-05-04 04:32:00,65.1,63.7,29.67,NE,51,0.0,1.0,95,0.00,,,0.00,meteohub,2013-05-04 08:32:00,
2013-05-04 04:37:00,65.1,64.0,29.67,NE,51,0.0,1.0,96,0.00,,,0.00,meteohub,2013-05-04 08:37:00,
2013-05-04 04:42:00,65.3,64.0,29.67,NE,51,0.0,2.0,96,0.00,,,0.00,meteohub,2013-05-04 08:42:00,
2013-05-04 04:47:00,65.5,64.2,29.68,NE,51,0.0,3.0,96,0.00,,,0.00,meteohub,2013-05-04 08:47:00,
2013-05-04 04:52:00,65.5,64.2,29.68,NE,51,0.0,3.0,96,0.00,,,0.00,meteohub,2013-05-04 08:52:00,
2013-05-04 04:57:00,65.5,64.2,29.68,NE,51,0.0,3.0,96,0.00,,,0.00,meteohub,2013-05-04 08:57:00,
2013-05-04 05:02:00,65.5,64.2,29.68,NE,51,0.0,2.0,96,0.00,,,0.00,meteohub,2013-05-04 09:02:00,
2013-05-04 05:07:00,65.8,64.9,29.68,NE,51,0.0,1.0,97,0.00,,,0.00,meteohub,2013-05-04 09:07:00,
2013-05-04 05:12:00,66.0,65.1,29.68,NE,51,0.0,3.0,97,0.00,,,0.00,meteohub,2013-05-04 09:12:00,
2013-05-04 05:17:00,66.0,65.1,29.68,NE,51,1.0,3.0,97,0.00,,,0.00,meteohub,2013-05-04 09:17:00,
2013-05-04 05:22:00,66.2,65.3,29.68,NE,51,0.0,2.0,97,0.00,,,0.00,meteohub,2013-05-04 09:22:00,
2013-05-04 05:27:00,66.4,65.1,29.68,NE,51,0.0,2.0,96,0.00,,,0.00,meteohub,2013-05-04 09:27:00,
2013-05-04 05:32:00,66.4,65.1,29.68,NE,51,0.0,2.0,96,0.00,,,0.00,meteohub,2013-05-04 09:32:00,
2013-05-04 05:37:00,66.4,65.5,29.68,NE,51,0.0,2.0,97,0.00,,,0.00,meteohub,2013-05-04 09:37:00,
2013-05-04 05:42:00,66.6,65.3,29.69,NE,51,1.0,2.0,96,0.00,,,0.00,meteohub,2013-05-04 09:42:00,
2013-05-04 05:47:00,66.6,65.3,29.69,NE,51,0.0,2.0,96,0.00,,,0.00,meteohub,2013-05-04 09:47:00,
2013-05-04 05:52:00,66.6,65.3,29.68,NE,51,0.0,2.0,96,0.00,,,0.00,meteohub,2013-05-04 09:52:00,
2013-05-04 05:57:00,66.7,65.5,29.68,NE,51,2.0,2.0,96,0.00,,,0.00,meteohub,2013-05-04 09:57:00,
2013-05-04 06:02:00,66.9,65.7,29.68,NE,51,1.0,3.0,96,0.00,,,0.00,meteohub,2013-05-04 10:02:00,
2013-05-04 06:07:00,67.1,65.8,29.69,NE,51,0.0,3.0,96,0.00,,,0.00,meteohub,2013-05-04 10:07:00,
2013-05-04 06:12:00,67.1,65.7,29.69,NE,51,0.0,3.0,95,0.00,,,0.00,meteohub,2013-05-04 10:12:00,
2013-05-04 06:17:00,66.9,65.5,29.69,NE,51,0.0,2.0,95,0.00,,,0.00,meteohub,2013-05-04 10:17:00,
2013-05-04 06:22:00,66.9,65.5,29.69,NE,51,0.0,0.0,95,0.00,,,0.00,meteohub,2013-05-04 10:22:00,
2013-05-04 06:27:00,66.7,65.3,29.70,NE,51,0.0,1.0,95,0.00,,,0.00,meteohub,2013-05-04 10:27:00,
2013-05-04 06:32:00,66.7,65.3,29.70,NE,51,0.0,1.0,95,0.00,,,0.00,meteohub,2013-05-04 10:32:00,
2013-05-04 06:37:00,66.6,65.1,29.70,NE,51,0.0,0.0,95,0.00,,,0.00,meteohub,2013-05-04 10:37:00,
2013-05-04 06:42:00,66.6,65.1,29.70,NE,51,0.0,2.0,95,0.00,,,0.00,meteohub,2013-05-04 10:42:00,
2013-05-04 06:47:00,66.6,65.1,29.70,NE,51,0.0,2.0,95,0.00,,,0.00,meteohub,2013-05-04 10:47:00,
2013-05-04 06:52:00,66.6,65.1,29.70,NE,51,0.0,2.0,95,0.00,,,0.00,meteohub,2013-05-04 10:52:00,
2013-05-04 06:57:00,66.4,64.9,29.70,NE,51,0.0,1.0,95,0.00,,,0.00,meteohub,2013-05-04 10:57:00,
2013-05-04 07:02:00,66.4,64.9,29.70,NE,51,0.0,1.0,95,0.00,,,0.00,meteohub,2013-05-04 11:02:00,
2013-05-04 07:07:00,66.4,64.9,29.70,NE,51,0.0,1.0,95,0.00,,,0.00,meteohub,2013-05-04 11:07:00,
2013-05-04 07:12:00,66.2,64.8,29.70,NE,51,0.0,1.0,95,0.00,,,0.00,meteohub,2013-05-04 11:12:00,
2013-05-04 07:17:00,66.2,64.8,29.71,NE,51,0.0,1.0,95,0.00,,,0.00,meteohub,2013-05-04 11:17:00,
2013-05-04 07:22:00,66.2,64.8,29.71,NE,51,0.0,0.0,95,0.00,,,0.00,meteohub,2013-05-04 11:22:00,
2013-05-04 07:27:00,66.2,64.9,29.71,NE,51,0.0,1.0,96,0.00,,,0.00,meteohub,2013-05-04 11:27:00,
2013-05-04 07:32:00,66.4,65.1,29.71,NE,51,0.0,1.0,96,0.00,,,0.00,meteohub,2013-05-04 11:32:00,
2013-05-04 07:37:00,66.6,65.3,29.71,NE,51,0.0,1.0,96,0.00,,,0.00,meteohub,2013-05-04 11:37:00,
2013-05-04 07:42:00,66.7,65.5,29.71,NE,51,0.0,0.0,96,0.00,,,0.00,meteohub,2013-05-04 11:42:00,
2013-05-04 07:47:00,66.9,65.7,29.72,NE,51,0.0,0.0,96,0.00,,,0.00,meteohub,2013-05-04 11:47:00,
2013-05-04 07:52:00,67.3,66.0,29.72,NE,51,0.0,0.0,96,0.00,,,0.00,meteohub,2013-05-04 11:52:00,
2013-05-04 07:57:00,67.5,66.2,29.72,NE,51,0.0,0.0,96,0.00,,,0.00,meteohub,2013-05-04 11:57:00,
2013-05-04 08:02:00,67.6,66.4,29.72,NE,51,0.0,1.0,96,0.00,,,0.00,meteohub,2013-05-04 12:02:00,
2013-05-04 08:10:00,68.0,66.6,29.72,NE,51,0.0,1.0,95,0.00,,,0.00,meteohub,2013-05-04 12:10:00,
2013-05-04 08:16:00,68.4,66.6,29.72,NE,51,0.0,2.0,94,0.00,,,0.00,meteohub,2013-05-04 12:16:00,
2013-05-04 08:22:00,68.7,66.6,29.72,NE,51,1.0,2.0,93,0.00,,,0.00,meteohub,2013-05-04 12:22:00,
2013-05-04 08:27:00,69.1,66.7,29.72,NE,51,0.0,2.0,92,0.00,,,0.00,meteohub,2013-05-04 12:27:00,
2013-05-04 08:32:00,69.4,67.1,29.72,NE,51,0.0,2.0,92,0.00,,,0.00,meteohub,2013-05-04 12:32:00,
2013-05-04 08:37:00,69.6,67.3,29.73,NE,51,0.0,1.0,92,0.00,,,0.00,meteohub,2013-05-04 12:37:00,
2013-05-04 08:42:00,70.0,67.5,29.73,NE,51,0.0,1.0,92,0.00,,,0.00,meteohub,2013-05-04 12:42:00,
2013-05-04 08:47:00,70.2,67.5,29.73,NE,51,0.0,1.0,91,0.00,,,0.00,meteohub,2013-05-04 12:47:00,
2013-05-04 08:52:00,70.2,67.1,29.73,NE,51,0.0,1.0,90,0.00,,,0.00,meteohub,2013-05-04 12:52:00,
2013-05-04 08:57:00,70.5,67.5,29.73,NE,44,2.0,2.0,90,0.00,,,0.00,meteohub,2013-05-04 12:57:00,
2013-05-04 09:02:00,70.9,67.5,29.73,NE,44,0.0,2.0,89,0.00,,,0.00,meteohub,2013-05-04 13:02:00,
2013-05-04 09:04:00,71.1,67.6,29.73,NE,44,1.0,2.0,89,0.00,,,0.00,meteohub,2013-05-04 13:04:00,
2013-05-04 09:10:00,72.0,68.5,29.73,WNW,298,3.0,3.0,89,0.00,,,0.00,meteohub,2013-05-04 13:10:00,
2013-05-04 09:16:00,72.5,68.4,29.73,West,265,3.0,5.0,87,0.00,,,0.00,meteohub,2013-05-04 13:16:00,
2013-05-04 09:22:00,72.7,68.2,29.73,WSW,246,2.0,5.0,86,0.00,,,0.00,meteohub,2013-05-04 13:22:00,
2013-05-04 09:27:00,72.9,67.8,29.73,WSW,254,5.0,6.0,84,0.00,,,0.00,meteohub,2013-05-04 13:27:00,
2013-05-04 09:32:00,72.9,67.8,29.73,WSW,252,2.0,9.0,84,0.00,,,0.00,meteohub,2013-05-04 13:32:00,
2013-05-04 09:37:00,73.0,68.0,29.73,NW,313,1.0,9.0,84,0.00,,,0.00,meteohub,2013-05-04 13:37:00,
2013-05-04 09:43:00,73.6,68.2,29.73,WSW,254,6.0,9.0,83,0.00,,,0.00,meteohub,2013-05-04 13:43:00,
2013-05-04 09:49:00,73.9,67.8,29.73,WSW,255,2.0,8.0,81,0.00,,,0.00,meteohub,2013-05-04 13:49:00,
2013-05-04 09:55:00,73.9,68.2,29.73,WSW,244,1.0,8.0,82,0.00,,,0.00,meteohub,2013-05-04 13:55:00,
2013-05-04 10:01:00,73.9,68.2,29.73,WSW,238,3.0,8.0,82,0.00,,,0.00,meteohub,2013-05-04 14:01:00,
2013-05-04 10:07:00,73.9,67.8,29.73,WNW,300,3.0,8.0,81,0.00,,,0.00,meteohub,2013-05-04 14:07:00,
2013-05-04 10:12:00,74.7,68.4,29.73,NE,50,2.0,6.0,81,0.00,,,0.00,meteohub,2013-05-04 14:12:00,
2013-05-04 10:17:00,75.0,67.6,29.73,NW,323,1.0,5.0,78,0.00,,,0.00,meteohub,2013-05-04 14:17:00,
2013-05-04 10:22:00,75.9,68.2,29.73,WNW,287,2.0,7.0,77,0.00,,,0.00,meteohub,2013-05-04 14:22:00,
2013-05-04 10:28:00,75.9,68.5,29.73,NW,311,4.0,7.0,78,0.00,,,0.00,meteohub,2013-05-04 14:28:00,
2013-05-04 10:34:00,76.3,67.8,29.73,WNW,286,2.0,5.0,75,0.00,,,0.00,meteohub,2013-05-04 14:34:00,
2013-05-04 10:40:00,76.3,67.5,29.73,WNW,296,4.0,7.0,74,0.00,,,0.00,meteohub,2013-05-04 14:40:00,
2013-05-04 10:46:00,75.9,67.8,29.73,West,273,1.0,10.0,76,0.00,,,0.00,meteohub,2013-05-04 14:46:00,
2013-05-04 10:52:00,76.3,67.8,29.73,WNW,283,2.0,10.0,75,0.00,,,0.00,meteohub,2013-05-04 14:52:00,
2013-05-04 10:57:00,76.5,67.6,29.73,West,267,8.0,12.0,74,0.00,,,0.00,meteohub,2013-05-04 14:57:00,
2013-05-04 11:02:00,76.3,67.8,29.73,WSW,258,3.0,12.0,75,0.00,,,0.00,meteohub,2013-05-04 15:02:00,
2013-05-04 11:07:00,76.6,67.3,29.73,West,261,1.0,12.0,73,0.00,,,0.00,meteohub,2013-05-04 15:07:00,
2013-05-04 11:12:00,77.4,68.4,29.73,WNW,289,3.0,10.0,74,0.00,,,0.00,meteohub,2013-05-04 15:12:00,
2013-05-04 11:17:00,77.7,67.6,29.73,WSW,252,3.0,10.0,71,0.00,,,0.00,meteohub,2013-05-04 15:17:00,
2013-05-04 11:22:00,77.4,67.6,29.73,West,271,8.0,10.0,72,0.00,,,0.00,meteohub,2013-05-04 15:22:00,
2013-05-04 11:27:00,77.4,68.0,29.74,WSW,250,3.0,10.0,73,0.00,,,0.00,meteohub,2013-05-04 15:27:00,
2013-05-04 11:32:00,77.4,68.0,29.74,WSW,247,5.0,9.0,73,0.00,,,0.00,meteohub,2013-05-04 15:32:00,
2013-05-04 11:37:00,77.4,67.6,29.74,ENE,61,3.0,9.0,72,0.00,,,0.00,meteohub,2013-05-04 15:37:00,
2013-05-04 11:42:00,77.0,67.3,29.74,WNW,294,2.0,8.0,72,0.00,,,0.00,meteohub,2013-05-04 15:42:00,
2013-05-04 11:47:00,77.4,68.0,29.74,WSW,250,1.0,8.0,73,0.00,,,0.00,meteohub,2013-05-04 15:47:00,
2013-05-04 11:52:00,77.7,68.4,29.74,WSW,258,2.0,10.0,73,0.00,,,0.00,meteohub,2013-05-04 15:52:00,
2013-05-04 11:57:00,77.9,68.9,29.74,NW,313,1.0,10.0,74,0.00,,,0.00,meteohub,2013-05-04 15:57:00,
2013-05-04 12:02:00,78.4,69.1,29.74,WNW,285,2.0,10.0,73,0.00,,,0.00,meteohub,2013-05-04 16:02:00,
2013-05-04 12:07:00,77.9,68.2,29.74,WSW,258,7.0,10.0,72,0.00,,,0.00,meteohub,2013-05-04 16:07:00,
2013-05-04 12:12:00,77.2,68.2,29.74,West,277,3.0,10.0,74,0.00,,,0.00,meteohub,2013-05-04 16:12:00,
2013-05-04 12:17:00,76.6,67.6,29.74,SSE,148,8.0,10.0,74,0.00,,,0.00,meteohub,2013-05-04 16:17:00,
2013-05-04 12:22:00,76.3,67.8,29.74,SSW,201,3.0,10.0,75,0.00,,,0.00,meteohub,2013-05-04 16:22:00,
2013-05-04 12:27:00,76.5,68.7,29.74,WSW,258,4.0,10.0,77,0.00,,,0.00,meteohub,2013-05-04 16:27:00,
2013-05-04 12:32:00,76.8,69.1,29.73,WSW,252,3.0,13.0,77,0.00,,,0.00,meteohub,2013-05-04 16:32:00,
2013-05-04 12:37:00,77.5,68.9,29.73,West,276,4.0,13.0,75,0.00,,,0.00,meteohub,2013-05-04 16:37:00,
2013-05-04 12:42:00,77.4,68.4,29.73,SW,230,3.0,13.0,74,0.00,,,0.00,meteohub,2013-05-04 16:42:00,
2013-05-04 12:47:00,77.4,69.3,29.74,WSW,243,6.0,10.0,76,0.00,,,0.00,meteohub,2013-05-04 16:47:00,
2013-05-04 12:52:00,78.1,68.4,29.73,WSW,251,5.0,10.0,72,0.00,,,0.00,meteohub,2013-05-04 16:52:00,
2013-05-04 12:57:00,78.1,68.7,29.73,WSW,242,1.0,10.0,73,0.00,,,0.00,meteohub,2013-05-04 16:57:00,
2013-05-04 13:02:00,78.1,68.4,29.73,East,87,0.0,13.0,72,0.00,,,0.00,meteohub,2013-05-04 17:02:00,
2013-05-04 13:07:00,79.3,68.7,29.73,East,81,1.0,13.0,70,0.00,,,0.00,meteohub,2013-05-04 17:07:00,
2013-05-04 13:12:00,79.3,68.7,29.73,SW,234,5.0,13.0,70,0.00,,,0.00,meteohub,2013-05-04 17:12:00,
2013-05-04 13:17:00,79.3,68.4,29.73,WNW,292,3.0,9.0,69,0.00,,,0.00,meteohub,2013-05-04 17:17:00,
2013-05-04 13:22:00,79.3,69.1,29.73,NW,307,5.0,9.0,71,0.00,,,0.00,meteohub,2013-05-04 17:22:00,
2013-05-04 13:27:00,78.6,68.4,29.73,WNW,286,7.0,9.0,71,0.00,,,0.00,meteohub,2013-05-04 17:27:00,
2013-05-04 13:32:00,78.4,68.7,29.72,WSW,242,14.0,14.0,72,0.00,,,0.00,meteohub,2013-05-04 17:32:00,
2013-05-04 13:37:00,78.4,68.7,29.73,WNW,285,4.0,14.0,72,0.00,,,0.00,meteohub,2013-05-04 17:37:00,
2013-05-04 13:42:00,79.2,68.5,29.72,NNW,344,1.0,14.0,70,0.00,,,0.00,meteohub,2013-05-04 17:42:00,
2013-05-04 13:47:00,79.3,68.7,29.73,NW,317,5.0,14.0,70,0.00,,,0.00,meteohub,2013-05-04 17:47:00,
2013-05-04 13:52:00,78.6,68.4,29.72,West,270,8.0,11.0,71,0.00,,,0.00,meteohub,2013-05-04 17:52:00,
2013-05-04 13:57:00,77.5,67.8,29.72,West,275,9.0,13.0,72,0.00,,,0.00,meteohub,2013-05-04 17:57:00,
2013-05-04 14:02:00,77.4,68.4,29.72,NW,307,4.0,16.0,74,0.00,,,0.00,meteohub,2013-05-04 18:02:00,
2013-05-04 14:07:00,77.9,68.2,29.72,WNW,298,7.0,17.0,72,0.00,,,0.00,meteohub,2013-05-04 18:07:00,
2013-05-04 14:12:00,77.2,68.2,29.73,WNW,298,5.0,17.0,74,0.00,,,0.00,meteohub,2013-05-04 18:12:00,
2013-05-04 14:17:00,77.4,68.9,29.73,SW,229,5.0,16.0,75,0.00,,,0.00,meteohub,2013-05-04 18:17:00,
2013-05-04 14:22:00,77.7,69.1,29.73,WNW,289,7.0,16.0,75,0.00,,,0.00,meteohub,2013-05-04 18:22:00,
2013-05-04 14:27:00,76.3,68.9,29.73,West,269,8.0,11.0,78,0.00,,,0.00,meteohub,2013-05-04 18:27:00,
2013-05-04 14:32:00,75.4,68.7,29.73,WSW,247,5.0,15.0,80,0.00,,,0.00,meteohub,2013-05-04 18:32:00,
2013-05-04 14:37:00,74.1,68.0,29.73,West,261,3.0,15.0,81,0.00,,,0.00,meteohub,2013-05-04 18:37:00,
2013-05-04 14:42:00,74.1,69.3,29.73,WNW,283,2.0,12.0,85,0.00,,,0.00,meteohub,2013-05-04 18:42:00,
2013-05-04 14:47:00,74.5,68.5,29.73,WNW,296,3.0,11.0,82,0.00,,,0.00,meteohub,2013-05-04 18:47:00,
2013-05-04 14:52:00,74.8,68.9,29.72,WNW,290,4.0,11.0,82,0.00,,,0.00,meteohub,2013-05-04 18:52:00,
2013-05-04 14:57:00,74.1,68.0,29.72,SW,233,7.0,17.0,81,0.00,,,0.00,meteohub,2013-05-04 18:57:00,
2013-05-04 15:02:00,74.7,68.7,29.72,West,279,8.0,19.0,82,0.00,,,0.00,meteohub,2013-05-04 19:02:00,
2013-05-04 15:07:00,75.6,68.9,29.72,West,265,4.0,19.0,80,0.00,,,0.00,meteohub,2013-05-04 19:07:00,
2013-05-04 15:12:00,75.4,68.7,29.72,NW,304,5.0,19.0,80,0.00,,,0.00,meteohub,2013-05-04 19:12:00,
2013-05-04 15:17:00,75.0,68.4,29.72,WSW,254,5.0,15.0,80,0.00,,,0.00,meteohub,2013-05-04 19:17:00,
2013-05-04 15:22:00,74.8,67.8,29.71,WNW,291,10.0,12.0,79,0.00,,,0.00,meteohub,2013-05-04 19:22:00,
2013-05-04 15:27:00,75.0,68.4,29.72,NNW,330,6.0,17.0,80,0.00,,,0.00,meteohub,2013-05-04 19:27:00,
2013-05-04 15:32:00,75.6,68.2,29.72,West,269,5.0,17.0,78,0.00,,,0.00,meteohub,2013-05-04 19:32:00,
2013-05-04 15:37:00,74.8,67.5,29.71,WNW,298,4.0,21.0,78,0.00,,,0.00,meteohub,2013-05-04 19:37:00,
2013-05-04 15:42:00,74.5,67.8,29.71,West,265,6.0,21.0,80,0.00,,,0.00,meteohub,2013-05-04 19:42:00,
2013-05-04 15:47:00,74.3,68.0,29.71,North,0,5.0,21.0,81,0.00,,,0.00,meteohub,2013-05-04 19:47:00,
2013-05-04 15:52:00,73.6,67.5,29.71,WSW,252,8.0,16.0,81,0.00,,,0.00,meteohub,2013-05-04 19:52:00,
2013-05-04 15:57:00,73.8,68.4,29.71,West,259,5.0,14.0,83,0.00,,,0.00,meteohub,2013-05-04 19:57:00,
2013-05-04 16:02:00,74.5,68.2,29.70,WSW,257,7.0,14.0,81,0.00,,,0.00,meteohub,2013-05-04 20:02:00,
2013-05-04 16:07:00,74.8,68.2,29.71,WNW,286,9.0,13.0,80,0.00,,,0.00,meteohub,2013-05-04 20:07:00,
2013-05-04 16:12:00,74.5,68.5,29.70,West,265,6.0,14.0,82,0.00,,,0.00,meteohub,2013-05-04 20:12:00,
2013-05-04 16:17:00,74.7,68.7,29.71,WSW,245,7.0,16.0,82,0.00,,,0.00,meteohub,2013-05-04 20:17:00,
2013-05-04 16:22:00,74.8,68.2,29.71,WSW,253,7.0,16.0,80,0.00,,,0.00,meteohub,2013-05-04 20:22:00,
2013-05-04 16:27:00,74.8,68.5,29.71,WSW,249,6.0,16.0,81,0.00,,,0.00,meteohub,2013-05-04 20:27:00,
2013-05-04 16:32:00,75.4,69.1,29.71,NNW,346,5.0,17.0,81,0.00,,,0.00,meteohub,2013-05-04 20:32:00,
2013-05-04 16:37:00,75.7,68.7,29.71,WSW,244,7.0,17.0,79,0.00,,,0.00,meteohub,2013-05-04 20:37:00,
2013-05-04 16:42:00,75.9,68.9,29.71,SW,215,5.0,17.0,79,0.00,,,0.00,meteohub,2013-05-04 20:42:00,
2013-05-04 16:47:00,75.7,69.1,29.70,WNW,298,4.0,13.0,80,0.00,,,0.00,meteohub,2013-05-04 20:47:00,
2013-05-04 16:52:00,75.9,68.5,29.71,West,275,8.0,13.0,78,0.00,,,0.00,meteohub,2013-05-04 20:52:00,
2013-05-04 16:57:00,75.7,68.7,29.70,WSW,249,4.0,13.0,79,0.00,,,0.00,meteohub,2013-05-04 20:57:00,
2013-05-04 17:02:00,76.3,69.3,29.70,West,260,2.0,13.0,79,0.00,,,0.00,meteohub,2013-05-04 21:02:00,
2013-05-04 17:07:00,76.8,69.1,29.70,West,269,3.0,13.0,77,0.00,,,0.00,meteohub,2013-05-04 21:07:00,
2013-05-04 17:12:00,76.8,69.1,29.70,NNW,327,2.0,11.0,77,0.00,,,0.00,meteohub,2013-05-04 21:12:00,
2013-05-04 17:17:00,76.3,68.9,29.70,WNW,292,5.0,8.0,78,0.00,,,0.00,meteohub,2013-05-04 21:17:00,
2013-05-04 17:22:00,75.0,68.7,29.70,WSW,240,6.0,9.0,81,0.00,,,0.00,meteohub,2013-05-04 21:22:00,
2013-05-04 17:27:00,74.5,68.2,29.70,West,275,4.0,10.0,81,0.00,,,0.00,meteohub,2013-05-04 21:27:00,
2013-05-04 17:32:00,74.7,68.7,29.70,WSW,246,7.0,10.0,82,0.00,,,0.00,meteohub,2013-05-04 21:32:00,
2013-05-04 17:37:00,74.8,68.2,29.70,NNW,328,3.0,10.0,80,0.00,,,0.00,meteohub,2013-05-04 21:37:00,
2013-05-04 17:42:00,74.8,68.5,29.70,West,277,0.0,8.0,81,0.00,,,0.00,meteohub,2013-05-04 21:42:00,
2013-05-04 17:47:00,75.4,69.1,29.70,West,277,2.0,8.0,81,0.00,,,0.00,meteohub,2013-05-04 21:47:00,
2013-05-04 17:52:00,75.0,69.1,29.70,WSW,254,6.0,7.0,82,0.00,,,0.00,meteohub,2013-05-04 21:52:00,
2013-05-04 17:57:00,75.0,68.7,29.70,West,267,6.0,9.0,81,0.00,,,0.00,meteohub,2013-05-04 21:57:00,
2013-05-04 18:02:00,75.2,68.9,29.70,West,272,2.0,9.0,81,0.00,,,0.00,meteohub,2013-05-04 22:02:00,
2013-05-04 18:07:00,75.4,68.7,29.70,WSW,244,5.0,9.0,80,0.00,,,0.00,meteohub,2013-05-04 22:07:00,
2013-05-04 18:12:00,75.6,68.9,29.70,WNW,286,2.0,8.0,80,0.00,,,0.00,meteohub,2013-05-04 22:12:00,
2013-05-04 18:17:00,75.6,68.9,29.70,SW,221,6.0,7.0,80,0.00,,,0.00,meteohub,2013-05-04 22:17:00,
2013-05-04 18:22:00,75.9,68.9,29.70,SSW,207,6.0,8.0,79,0.00,,,0.00,meteohub,2013-05-04 22:22:00,
2013-05-04 18:27:00,75.7,68.7,29.70,WSW,246,4.0,8.0,79,0.00,,,0.00,meteohub,2013-05-04 22:27:00,
2013-05-04 18:32:00,75.4,68.4,29.70,WSW,248,2.0,8.0,79,0.00,,,0.00,meteohub,2013-05-04 22:32:00,
2013-05-04 18:37:00,75.0,68.7,29.70,WSW,250,0.0,8.0,81,0.00,,,0.00,meteohub,2013-05-04 22:37:00,
2013-05-04 18:42:00,75.0,68.7,29.70,NNE,22,1.0,5.0,81,0.00,,,0.00,meteohub,2013-05-04 22:42:00,
2013-05-04 18:47:00,75.2,68.2,29.71,NW,323,2.0,6.0,79,0.00,,,0.00,meteohub,2013-05-04 22:47:00,
2013-05-04 18:52:00,75.6,68.2,29.71,North,5,1.0,6.0,78,0.00,,,0.00,meteohub,2013-05-04 22:52:00,
2013-05-04 18:57:00,75.7,67.6,29.71,NE,42,1.0,4.0,76,0.00,,,0.00,meteohub,2013-05-04 22:57:00,
2013-05-04 19:02:00,75.9,68.2,29.70,NE,42,0.0,6.0,77,0.00,,,0.00,meteohub,2013-05-04 23:02:00,
2013-05-04 19:07:00,76.5,68.4,29.70,West,267,1.0,6.0,76,0.00,,,0.00,meteohub,2013-05-04 23:07:00,
2013-05-04 19:12:00,76.5,68.4,29.71,WNW,290,2.0,6.0,76,0.00,,,0.00,meteohub,2013-05-04 23:12:00,
2013-05-04 19:17:00,75.6,68.2,29.71,WSW,254,1.0,4.0,78,0.00,,,0.00,meteohub,2013-05-04 23:17:00,
2013-05-04 19:22:00,75.0,67.6,29.71,WNW,294,3.0,4.0,78,0.00,,,0.00,meteohub,2013-05-04 23:22:00,
2013-05-04 19:27:00,74.7,67.6,29.72,West,277,2.0,4.0,79,0.00,,,0.00,meteohub,2013-05-04 23:27:00,
2013-05-04 19:32:00,74.1,68.0,29.72,West,277,1.0,4.0,81,0.00,,,0.00,meteohub,2013-05-04 23:32:00,
2013-05-04 19:37:00,73.8,68.0,29.72,WSW,252,2.0,6.0,82,0.00,,,0.00,meteohub,2013-05-04 23:37:00,
2013-05-04 19:42:00,73.8,68.0,29.72,WNW,282,2.0,6.0,82,0.00,,,0.00,meteohub,2013-05-04 23:42:00,
2013-05-04 19:47:00,73.6,68.2,29.73,WNW,294,0.0,6.0,83,0.00,,,0.00,meteohub,2013-05-04 23:47:00,
2013-05-04 19:52:00,73.4,67.6,29.73,WSW,258,2.0,5.0,82,0.00,,,0.00,meteohub,2013-05-04 23:52:00,
2013-05-04 19:57:00,73.2,67.8,29.73,WSW,238,0.0,5.0,83,0.00,,,0.00,meteohub,2013-05-04 23:57:00,
2013-05-04 20:02:00,73.0,68.0,29.72,NW,315,1.0,4.0,84,0.00,,,0.00,meteohub,2013-05-05 00:02:00,
2013-05-04 20:07:00,72.9,67.8,29.73,West,263,1.0,4.0,84,0.00,,,0.00,meteohub,2013-05-05 00:07:00,
2013-05-04 20:12:00,72.9,67.5,29.72,West,263,0.0,7.0,83,0.00,,,0.00,meteohub,2013-05-05 00:12:00,
2013-05-04 20:17:00,72.7,66.9,29.72,WNW,286,1.0,7.0,82,0.00,,,0.00,meteohub,2013-05-05 00:17:00,
2013-05-04 20:22:00,72.7,66.9,29.73,WNW,302,0.0,7.0,82,0.00,,,0.00,meteohub,2013-05-05 00:22:00,
2013-05-04 20:27:00,72.5,66.7,29.73,WNW,286,1.0,7.0,82,0.00,,,0.00,meteohub,2013-05-05 00:27:00,
2013-05-04 20:32:00,72.3,66.9,29.73,WNW,286,2.0,4.0,83,0.00,,,0.00,meteohub,2013-05-05 00:32:00,
2013-05-04 20:37:00,72.3,66.9,29.73,WNW,287,2.0,6.0,83,0.00,,,0.00,meteohub,2013-05-05 00:37:00,
2013-05-04 20:42:00,72.3,67.3,29.73,SW,215,2.0,6.0,84,0.00,,,0.00,meteohub,2013-05-05 00:42:00,
2013-05-04 20:47:00,72.3,67.3,29.74,WNW,293,3.0,6.0,84,0.00,,,0.00,meteohub,2013-05-05 00:47:00,
2013-05-04 20:52:00,72.3,67.3,29.74,West,262,1.0,6.0,84,0.00,,,0.00,meteohub,2013-05-05 00:52:00,
2013-05-04 20:57:00,72.3,67.3,29.74,NE,53,0.0,8.0,84,0.00,,,0.00,meteohub,2013-05-05 00:57:00,
2013-05-04 21:02:00,72.3,67.3,29.74,NW,316,1.0,8.0,84,0.00,,,0.00,meteohub,2013-05-05 01:02:00,
2013-05-04 21:07:00,72.3,67.3,29.74,NW,309,0.0,6.0,84,0.00,,,0.00,meteohub,2013-05-05 01:07:00,
2013-05-04 21:12:00,72.3,67.3,29.75,NW,320,2.0,6.0,84,0.00,,,0.00,meteohub,2013-05-05 01:12:00,
2013-05-04 21:17:00,72.3,67.3,29.75,WNW,290,3.0,6.0,84,0.00,,,0.00,meteohub,2013-05-05 01:17:00,
2013-05-04 21:22:00,72.3,67.3,29.75,WNW,284,1.0,6.0,84,0.00,,,0.00,meteohub,2013-05-05 01:22:00,
2013-05-04 21:27:00,72.1,66.7,29.75,WNW,289,3.0,6.0,83,0.00,,,0.00,meteohub,2013-05-05 01:27:00,
2013-05-04 21:32:00,72.0,66.6,29.75,SW,221,2.0,5.0,83,0.00,,,0.00,meteohub,2013-05-05 01:32:00,
2013-05-04 21:37:00,71.8,66.4,29.75,WNW,294,1.0,5.0,83,0.00,,,0.00,meteohub,2013-05-05 01:37:00,
2013-05-04 21:42:00,71.6,66.2,29.75,WNW,300,1.0,5.0,83,0.00,,,0.00,meteohub,2013-05-05 01:42:00,
2013-05-04 21:47:00,71.4,66.0,29.76,WSW,256,2.0,5.0,83,0.00,,,0.00,meteohub,2013-05-05 01:47:00,
2013-05-04 21:52:00,71.2,66.2,29.76,WNW,296,1.0,4.0,84,0.00,,,0.00,meteohub,2013-05-05 01:52:00,
2013-05-04 21:57:00,71.2,66.2,29.77,West,267,1.0,5.0,84,0.00,,,0.00,meteohub,2013-05-05 01:57:00,
2013-05-04 22:02:00,71.2,66.9,29.77,SW,220,7.0,7.0,86,0.00,,,0.00,meteohub,2013-05-05 02:02:00,
2013-05-04 22:07:00,71.2,67.1,29.77,WSW,258,4.0,8.0,87,0.00,,,0.00,meteohub,2013-05-05 02:07:00,
2013-05-04 22:12:00,71.2,67.1,29.78,WSW,242,2.0,8.0,87,0.00,,,0.00,meteohub,2013-05-05 02:12:00,
2013-05-04 22:17:00,71.2,67.1,29.78,SW,236,1.0,8.0,87,0.00,,,0.00,meteohub,2013-05-05 02:17:00,
2013-05-04 22:22:00,71.2,67.1,29.78,WSW,250,4.0,7.0,87,0.00,,,0.00,meteohub,2013-05-05 02:22:00,
2013-05-04 22:27:00,71.2,67.1,29.78,NW,308,2.0,7.0,87,0.00,,,0.00,meteohub,2013-05-05 02:27:00,
2013-05-04 22:32:00,71.1,67.3,29.78,West,263,1.0,7.0,88,0.00,,,0.00,meteohub,2013-05-05 02:32:00,
2013-05-04 22:37:00,70.7,66.9,29.78,WNW,301,3.0,8.0,88,0.00,,,0.00,meteohub,2013-05-05 02:37:00,
2013-05-04 22:42:00,70.5,67.1,29.79,WNW,288,0.0,8.0,89,0.00,,,0.00,meteohub,2013-05-05 02:42:00,
2013-05-04 22:47:00,70.5,67.1,29.79,NW,321,3.0,8.0,89,0.00,,,0.00,meteohub,2013-05-05 02:47:00,
2013-05-04 22:52:00,70.5,66.4,29.79,NW,306,1.0,6.0,87,0.00,,,0.00,meteohub,2013-05-05 02:52:00,
2013-05-04 22:57:00,70.5,66.2,29.79,WNW,301,0.0,7.0,86,0.00,,,0.00,meteohub,2013-05-05 02:57:00,
2013-05-04 23:02:00,70.7,66.4,29.79,NW,304,0.0,7.0,86,0.00,,,0.00,meteohub,2013-05-05 03:02:00,
2013-05-04 23:07:00,70.9,66.2,29.79,West,263,5.0,7.0,85,0.00,,,0.00,meteohub,2013-05-05 03:07:00,
2013-05-04 23:12:00,70.7,66.0,29.79,NW,308,2.0,7.0,85,0.00,,,0.00,meteohub,2013-05-05 03:12:00,
2013-05-04 23:17:00,70.7,65.7,29.79,WNW,288,1.0,6.0,84,0.00,,,0.00,meteohub,2013-05-05 03:17:00,
2013-05-04 23:22:00,70.5,65.5,29.79,NW,306,2.0,6.0,84,0.00,,,0.00,meteohub,2013-05-05 03:22:00,
2013-05-04 23:27:00,70.5,65.8,29.79,West,269,3.0,5.0,85,0.00,,,0.00,meteohub,2013-05-05 03:27:00,
2013-05-04 23:32:00,70.3,66.0,29.79,NE,51,2.0,5.0,86,0.00,,,0.00,meteohub,2013-05-05 03:32:00,
2013-05-04 23:37:00,70.3,66.0,29.79,WNW,288,4.0,6.0,86,0.00,,,0.00,meteohub,2013-05-05 03:37:00,
2013-05-04 23:42:00,70.2,66.0,29.79,SW,224,2.0,9.0,87,0.00,,,0.00,meteohub,2013-05-05 03:42:00,
2013-05-04 23:47:00,70.0,66.0,29.80,WSW,244,2.0,9.0,87,0.00,,,0.00,meteohub,2013-05-05 03:47:00,
2013-05-04 23:52:00,69.8,65.8,29.80,WSW,239,10.0,10.0,87,0.00,,,0.00,meteohub,2013-05-05 03:52:00,
2013-05-04 23:57:00,69.4,65.7,29.80,NW,304,4.0,11.0,88,0.00,,,0.00,meteohub,2013-05-05 03:57:00,